Time,TemperatureF,DewpointF,PressureIn,WindDirection,WindDirectionDegrees,WindSpeedMPH,WindSpeedGustMPH,Humidity,HourlyPrecipIn,Conditions,Clouds,dailyrainin,SolarRadiationWatts/m^2,SoftwareType,DateUTC
2013-03-30 00:00:00,44.9,43.5,30.18,ESE,109,0.0,0.0,95,0.00,RA,,0.00,0.0,WeatherDisplay:10.37,2013-03-30 05:00:00,
2013-03-30 00:10:00,43.3,41.4,30.18,SE,127,0.0,1.0,93,0.00,OVC,,0.00,0.0,WeatherDisplay:10.37,2013-03-30 05:10:00,
2013-03-30 00:20:00,42.6,41.3,30.18,SSE,158,0.0,0.0,95,0.00,OVC,,0.00,0.0,WeatherDisplay:10.37,2013-03-30 05:20:00,
2013-03-30 00:30:00,43.5,42.4,30.18,SSE,158,0.0,0.0,96,0.00,OVC,,0.00,0.0,WeatherDisplay:10.37,2013-03-30 05:30:00,
2013-03-30 00:40:00,43.8,42.7,30.18,SSE,158,0.0,0.0,96,0.00,OVC,,0.00,0.0,WeatherDisplay:10.37,2013-03-30 05:40:00,
2013-03-30 00:50:00,43.4,42.1,30.18,SSE,156,0.0,0.0,95,0.00,OVC,,0.00,0.0,WeatherDisplay:10.37,2013-03-30 05:50:00,
2013-03-30 01:00:00,43.1,41.8,30.18,SSE,156,0.0,0.0,95,0.00,OVC,,0.00,0.0,WeatherDisplay:10.37,2013-03-30 06:00:00,
2013-03-30 01:10:00,42.8,41.7,30.18,SSE,156,0.0,1.0,96,0.00,OVC,,0.00,0.0,WeatherDisplay:10.37,2013-03-30 06:10:00,
2013-03-30 01:20:00,42.1,40.8,30.18,SSE,156,0.0,1.0,95,0.00,OVC,,0.00,0.0,WeatherDisplay:10.37,2013-03-30 06:20:00,
2013-03-30 01:30:00,42.2,41.1,30.18,SE,140,0.0,1.0,96,0.00,OVC,,0.00,0.0,WeatherDisplay:10.37,2013-03-30 06:30:00,
2013-03-30 01:40:00,42.0,40.9,30.18,ENE,66,0.0,1.0,96,0.00,OVC,,0.00,0.0,WeatherDisplay:10.37,2013-03-30 06:40:00,
2013-03-30 01:50:00,41.8,40.7,30.18,SSW,208,0.0,2.0,96,0.00,OVC,,0.00,0.0,WeatherDisplay:10.37,2013-03-30 06:50:00,
2013-03-30 02:00:00,41.8,40.8,30.18,SSW,210,0.0,1.0,96,0.00,OVC,,0.00,0.0,WeatherDisplay:10.37,2013-03-30 07:00:00,
2013-03-30 02:10:00,41.9,40.8,30.17,SSW,208,0.0,1.0,96,0.00,OVC,,0.00,0.0,WeatherDisplay:10.37,2013-03-30 07:10:00,
2013-03-30 02:20:00,41.6,40.6,30.17,NE,51,1.0,1.0,96,0.00,OVC,,0.00,0.0,WeatherDisplay:10.37,2013-03-30 07:20:00,
2013-03-30 02:30:00,41.7,40.6,30.16,ENE,60,0.0,1.0,96,0.00,OVC,,0.00,0.0,WeatherDisplay:10.37,2013-03-30 07:30:00,
2013-03-30 02:40:00,41.7,40.6,30.16,SE,124,0.0,1.0,96,0.00,OVC,,0.00,0.0,WeatherDisplay:10.37,2013-03-30 07:40:00,
2013-03-30 02:50:00,41.7,40.6,30.16,SE,134,0.0,1.0,96,0.00,OVC,,0.00,0.0,WeatherDisplay:10.37,2013-03-30 07:50:00,
2013-03-30 03:00:00,41.6,40.5,30.16,SE,146,0.0,1.0,96,0.00,OVC,,0.00,0.0,WeatherDisplay:10.37,2013-03-30 08:00:00,
2013-03-30 03:10:00,41.8,40.7,30.16,SSE,149,0.0,0.0,96,0.00,OVC,,0.00,0.0,WeatherDisplay:10.37,2013-03-30 08:10:00,
2013-03-30 03:20:00,41.5,40.4,30.16,SSE,158,0.0,1.0,96,0.00,OVC,,0.00,0.0,WeatherDisplay:10.37,2013-03-30 08:20:00,
2013-03-30 03:30:00,41.2,40.1,30.15,SSE,147,1.0,1.0,96,0.00,OVC,,0.00,0.0,WeatherDisplay:10.37,2013-03-30 08:30:00,
2013-03-30 03:40:00,41.1,40.0,30.15,SE,141,0.0,1.0,96,0.00,OVC,,0.00,0.0,WeatherDisplay:10.37,2013-03-30 08:40:00,
2013-03-30 03:50:00,41.0,39.9,30.14,ESE,121,0.0,2.0,96,0.00,OVC,,0.00,0.0,WeatherDisplay:10.37,2013-03-30 08:50:00,
2013-03-30 04:00:00,40.9,39.8,30.15,East,89,1.0,2.0,96,0.00,OVC,,0.00,0.0,WeatherDisplay:10.37,2013-03-30 09:00:00,
2013-03-30 04:10:00,40.9,39.8,30.14,ENE,58,0.0,2.0,96,0.00,OVC,,0.00,0.0,WeatherDisplay:10.37,2013-03-30 09:10:00,
2013-03-30 04:20:00,40.8,39.7,30.14,ENE,57,0.0,2.0,96,0.00,OVC,,0.00,0.0,WeatherDisplay:10.37,2013-03-30 09:20:00,
2013-03-30 04:30:00,40.8,39.7,30.14,NE,55,0.0,1.0,96,0.00,OVC,,0.00,0.0,WeatherDisplay:10.37,2013-03-30 09:30:00,
2013-03-30 04:40:00,40.8,39.7,30.14,ENE,57,0.0,1.0,96,0.01,RA,,0.01,0.0,WeatherDisplay:10.37,2013-03-30 09:40:00,
2013-03-30 04:50:00,40.8,39.7,30.14,ENE,65,0.0,1.0,96,0.00,OVC,,0.01,0.0,WeatherDisplay:10.37,2013-03-30 09:50:00,
2013-03-30 05:00:00,40.7,39.6,30.14,ENE,62,0.0,1.0,96,0.00,OVC,,0.01,0.0,WeatherDisplay:10.37,2013-03-30 10:00:00,
2013-03-30 05:10:00,40.6,39.5,30.15,NE,52,1.0,2.0,96,0.00,OVC,,0.01,0.0,WeatherDisplay:10.37,2013-03-30 10:10:00,
2013-03-30 05:20:00,40.4,39.4,30.15,NE,50,1.0,5.0,96,0.00,OVC,,0.01,0.0,WeatherDisplay:10.37,2013-03-30 10:20:00,
2013-03-30 05:30:00,40.3,39.3,30.14,NE,37,2.0,5.0,96,0.00,OVC,,0.01,0.0,WeatherDisplay:10.37,2013-03-30 10:30:00,
2013-03-30 05:40:00,40.1,39.1,30.15,NE,44,2.0,5.0,96,0.00,OVC,,0.01,0.0,WeatherDisplay:10.37,2013-03-30 10:40:00,
2013-03-30 05:50:00,39.9,38.9,30.15,NE,43,2.0,5.0,96,0.00,OVC,,0.01,0.0,WeatherDisplay:10.37,2013-03-30 10:50:00,
2013-03-30 06:00:00,39.9,38.9,30.14,NE,45,3.0,5.0,96,0.00,OVC,,0.01,0.0,WeatherDisplay:10.37,2013-03-30 11:00:00,
2013-03-30 06:10:00,40.0,39.2,30.14,ENE,70,3.0,6.0,97,0.00,OVC,,0.01,0.0,WeatherDisplay:10.37,2013-03-30 11:10:00,
2013-03-30 06:20:00,40.3,39.5,30.14,NE,51,1.0,4.0,97,0.00,OVC,,0.01,0.0,WeatherDisplay:10.37,2013-03-30 11:20:00,
2013-03-30 06:30:00,40.4,39.6,30.15,ENE,58,1.0,3.0,97,0.00,OVC,,0.01,0.0,WeatherDisplay:10.37,2013-03-30 11:30:00,
2013-03-30 06:40:00,40.5,39.7,30.15,NE,50,2.0,3.0,97,0.00,OVC,,0.01,0.0,WeatherDisplay:10.37,2013-03-30 11:40:00,
2013-03-30 06:50:00,40.6,39.8,30.15,NE,49,0.0,2.0,97,0.00,OVC,,0.01,0.0,WeatherDisplay:10.37,2013-03-30 11:50:00,
2013-03-30 07:00:00,40.6,39.8,30.15,ESE,113,1.0,1.0,97,0.00,OVC,,0.01,0.0,WeatherDisplay:10.37,2013-03-30 12:00:00,
2013-03-30 07:10:00,40.7,39.9,30.15,ESE,106,0.0,2.0,97,0.00,OVC,,0.01,0.0,WeatherDisplay:10.37,2013-03-30 12:10:00,
2013-03-30 07:20:00,40.7,39.9,30.14,NE,54,3.0,5.0,97,0.00,OVC,,0.01,0.0,WeatherDisplay:10.37,2013-03-30 12:20:00,
2013-03-30 07:30:00,40.5,39.7,30.14,NE,55,5.0,8.0,97,0.00,OVC,,0.01,0.0,WeatherDisplay:10.37,2013-03-30 12:30:00,
2013-03-30 07:40:00,40.5,39.7,30.14,NE,48,5.0,9.0,97,0.00,OVC,,0.01,0.0,WeatherDisplay:10.37,2013-03-30 12:40:00,
2013-03-30 07:50:00,40.8,40.0,30.14,NE,48,3.0,8.0,97,0.00,OVC,,0.01,0.0,WeatherDisplay:10.37,2013-03-30 12:50:00,
2013-03-30 08:00:00,41.1,40.3,30.14,ENE,58,2.0,7.0,97,0.00,OVC,,0.01,0.0,WeatherDisplay:10.37,2013-03-30 13:00:00,
2013-03-30 08:10:00,41.3,40.5,30.15,NE,56,2.0,6.0,97,0.00,OVC,,0.01,0.0,WeatherDisplay:10.37,2013-03-30 13:10:00,
2013-03-30 08:20:00,41.6,40.8,30.14,ENE,58,3.0,5.0,97,0.00,OVC,,0.01,0.0,WeatherDisplay:10.37,2013-03-30 13:20:00,
2013-03-30 08:30:00,41.9,41.1,30.14,ENE,57,5.0,7.0,97,0.00,OVC,,0.01,0.0,WeatherDisplay:10.37,2013-03-30 13:30:00,
2013-03-30 08:40:00,42.4,41.7,30.14,East,89,1.0,7.0,97,0.00,OVC,,0.01,0.0,WeatherDisplay:10.37,2013-03-30 13:40:00,
2013-03-30 08:50:00,42.9,42.1,30.14,ENE,72,3.0,7.0,97,0.00,OVC,,0.01,0.0,WeatherDisplay:10.37,2013-03-30 13:50:00,
2013-03-30 09:00:00,43.2,42.4,30.14,ENE,61,1.0,7.0,97,0.00,OVC,,0.01,0.0,WeatherDisplay:10.37,2013-03-30 14:00:00,
2013-03-30 09:10:00,43.7,42.9,30.14,ENE,78,1.0,4.0,97,0.00,OVC,,0.01,0.0,WeatherDisplay:10.37,2013-03-30 14:10:00,
2013-03-30 09:20:00,44.1,43.3,30.14,ENE,69,0.0,4.0,97,0.00,OVC,,0.01,0.0,WeatherDisplay:10.37,2013-03-30 14:20:00,
2013-03-30 09:30:00,43.8,43.0,30.14,ESE,119,5.0,7.0,97,0.00,OVC,,0.01,0.0,WeatherDisplay:10.37,2013-03-30 14:30:00,
2013-03-30 09:40:00,43.7,42.9,30.14,ESE,110,3.0,9.0,97,0.00,OVC,,0.01,0.0,WeatherDisplay:10.37,2013-03-30 14:40:00,
2013-03-30 09:50:00,43.9,43.1,30.13,ESE,107,3.0,7.0,97,0.00,OVC,,0.01,0.0,WeatherDisplay:10.37,2013-03-30 14:50:00,
2013-03-30 10:00:00,44.4,43.6,30.13,ESE,104,6.0,10.0,97,0.00,OVC,,0.01,0.0,WeatherDisplay:10.37,2013-03-30 15:00:00,
2013-03-30 10:10:00,44.8,44.0,30.12,ESE,111,3.0,8.0,97,0.00,OVC,,0.01,0.0,WeatherDisplay:10.37,2013-03-30 15:10:00,
2013-03-30 10:20:00,45.6,44.8,30.12,ESE,106,5.0,9.0,97,0.00,OVC,,0.01,0.0,WeatherDisplay:10.37,2013-03-30 15:20:00,
2013-03-30 10:30:00,45.7,44.9,30.13,ESE,109,3.0,8.0,97,0.00,OVC,,0.01,0.0,WeatherDisplay:10.37,2013-03-30 15:30:00,
2013-03-30 10:40:00,46.2,45.4,30.13,East,94,2.0,5.0,97,0.00,OVC,,0.01,0.0,WeatherDisplay:10.37,2013-03-30 15:40:00,
2013-03-30 10:50:00,46.5,45.4,30.12,ESE,102,2.0,6.0,96,0.00,OVC,,0.01,0.0,WeatherDisplay:10.37,2013-03-30 15:50:00,
2013-03-30 11:00:00,47.0,45.9,30.12,East,101,1.0,6.0,96,0.00,OVC,,0.01,0.0,WeatherDisplay:10.37,2013-03-30 16:00:00,
2013-03-30 11:10:00,47.6,46.2,30.12,East,85,2.0,7.0,95,0.00,OVC,,0.01,0.0,WeatherDisplay:10.37,2013-03-30 16:10:00,
2013-03-30 11:20:00,47.7,46.1,30.12,ESE,102,3.0,6.0,94,0.00,OVC,,0.01,0.0,WeatherDisplay:10.37,2013-03-30 16:20:00,
2013-03-30 11:30:00,48.7,46.4,30.12,East,94,7.0,10.0,92,0.00,OVC,,0.01,0.0,WeatherDisplay:10.37,2013-03-30 16:30:00,
2013-03-30 11:40:00,49.1,46.9,30.11,East,96,2.0,8.0,92,0.00,OVC,,0.01,0.0,WeatherDisplay:10.37,2013-03-30 16:40:00,
2013-03-30 11:50:00,49.7,46.6,30.11,East,81,3.0,8.0,89,0.00,OVC,,0.01,0.0,WeatherDisplay:10.37,2013-03-30 16:50:00,
2013-03-30 12:00:00,49.9,46.8,30.11,East,94,3.0,6.0,89,0.00,OVC,,0.01,0.0,WeatherDisplay:10.37,2013-03-30 17:00:00,
2013-03-30 12:10:00,50.6,46.9,30.10,ESE,102,3.0,7.0,87,0.00,OVC,,0.01,0.0,WeatherDisplay:10.37,2013-03-30 17:10:00,
2013-03-30 12:20:00,50.9,47.2,30.10,East,101,3.0,8.0,87,0.00,OVC,,0.01,0.0,WeatherDisplay:10.37,2013-03-30 17:20:00,
2013-03-30 12:30:00,50.9,46.9,30.09,ESE,104,3.0,8.0,86,0.00,OVC,,0.01,0.0,WeatherDisplay:10.37,2013-03-30 17:30:00,
2013-03-30 12:40:00,51.3,46.9,30.09,ESE,122,6.0,7.0,85,0.00,OVC,,0.01,0.0,WeatherDisplay:10.37,2013-03-30 17:40:00,
2013-03-30 12:50:00,51.2,47.2,30.08,ESE,122,3.0,10.0,86,0.00,OVC,,0.01,0.0,WeatherDisplay:10.37,2013-03-30 17:50:00,
2013-03-30 13:00:00,51.8,47.4,30.08,ESE,118,2.0,7.0,85,0.00,OVC,,0.01,0.0,WeatherDisplay:10.37,2013-03-30 18:00:00,
2013-03-30 13:10:00,51.7,47.3,30.07,SE,137,6.0,10.0,85,0.00,OVC,,0.01,0.0,WeatherDisplay:10.37,2013-03-30 18:10:00,
2013-03-30 13:20:00,51.5,47.1,30.07,SE,133,5.0,8.0,85,0.00,OVC,,0.01,0.0,WeatherDisplay:10.37,2013-03-30 18:20:00,
2013-03-30 13:30:00,51.5,47.1,30.06,SE,132,3.0,8.0,85,0.00,OVC,,0.01,0.0,WeatherDisplay:10.37,2013-03-30 18:30:00,
2013-03-30 13:40:00,51.6,47.2,30.06,SE,134,2.0,7.0,85,0.00,OVC,,0.01,0.0,WeatherDisplay:10.37,2013-03-30 18:40:00,
2013-03-30 13:50:00,51.7,47.3,30.06,ESE,122,5.0,8.0,85,0.00,OVC,,0.01,0.0,WeatherDisplay:10.37,2013-03-30 18:50:00,
2013-03-30 14:00:00,51.1,47.1,30.05,SE,136,2.0,8.0,86,0.00,OVC,,0.01,0.0,WeatherDisplay:10.37,2013-03-30 19:00:00,
2013-03-30 14:10:00,50.8,47.1,30.05,SE,140,2.0,8.0,87,0.00,OVC,,0.01,0.0,WeatherDisplay:10.37,2013-03-30 19:10:00,
2013-03-30 14:20:00,51.1,48.0,30.05,SSE,147,2.0,6.0,89,0.00,OVC,,0.01,0.0,WeatherDisplay:10.37,2013-03-30 19:20:00,
2013-03-30 14:30:00,50.8,47.4,30.05,SE,137,2.0,6.0,88,0.00,OVC,,0.01,0.0,WeatherDisplay:10.37,2013-03-30 19:30:00,
2013-03-30 14:40:00,50.5,47.4,30.04,SE,133,2.0,6.0,89,0.00,BKN,,0.01,0.0,WeatherDisplay:10.37,2013-03-30 19:40:00,
2013-03-30 14:50:00,50.4,47.9,30.04,SE,132,3.0,6.0,91,0.01,RA,,0.02,0.0,WeatherDisplay:10.37,2013-03-30 19:50:00,
2013-03-30 15:00:00,50.2,48.0,30.03,ESE,120,3.0,7.0,92,0.02,RA,,0.05,0.0,WeatherDisplay:10.37,2013-03-30 20:00:00,
2013-03-30 15:10:00,50.0,47.8,30.02,ESE,112,2.0,6.0,92,0.01,RA,,0.05,0.0,WeatherDisplay:10.37,2013-03-30 20:10:00,
2013-03-30 15:20:00,50.0,47.8,30.01,ESE,116,3.0,7.0,92,0.00,OVC,,0.05,0.0,WeatherDisplay:10.37,2013-03-30 20:20:00,
2013-03-30 15:30:00,49.9,48.0,30.01,ESE,117,2.0,8.0,93,0.01,RA,,0.06,0.0,WeatherDisplay:10.37,2013-03-30 20:30:00,
2013-03-30 15:40:00,50.2,48.3,30.00,East,101,3.0,7.0,93,0.00,OVC,,0.06,0.0,WeatherDisplay:10.37,2013-03-30 20:40:00,
2013-03-30 15:50:00,50.5,48.5,29.99,ESE,104,2.0,6.0,93,0.00,OVC,,0.06,0.0,WeatherDisplay:10.37,2013-03-30 20:50:00,
2013-03-30 16:00:00,50.7,48.7,29.98,ESE,102,5.0,8.0,93,0.01,RA,,0.07,0.0,WeatherDisplay:10.37,2013-03-30 21:00:00,
2013-03-30 16:10:00,50.7,48.7,29.98,ESE,103,5.0,8.0,93,0.00,OVC,,0.07,0.0,WeatherDisplay:10.37,2013-03-30 21:10:00,
2013-03-30 16:20:00,50.6,48.7,29.98,ESE,116,3.0,8.0,93,0.01,RA,,0.08,0.0,WeatherDisplay:10.37,2013-03-30 21:20:00,
2013-03-30 16:30:00,50.7,49.1,29.98,ESE,115,2.0,8.0,94,0.01,RA,,0.09,0.0,WeatherDisplay:10.37,2013-03-30 21:30:00,
2013-03-30 16:40:00,50.5,48.8,29.97,ESE,114,6.0,9.0,94,0.01,RA,,0.10,0.0,WeatherDisplay:10.37,2013-03-30 21:40:00,
2013-03-30 16:50:00,50.4,48.7,29.97,ESE,117,3.0,8.0,94,0.01,RA,,0.11,0.0,WeatherDisplay:10.37,2013-03-30 21:50:00,
2013-03-30 17:00:00,50.5,48.9,29.96,ESE,115,2.0,7.0,94,0.01,RA,,0.12,0.0,WeatherDisplay:10.37,2013-03-30 22:00:00,
2013-03-30 17:10:00,50.5,48.8,29.96,ESE,115,3.0,6.0,94,0.00,OVC,,0.12,0.0,WeatherDisplay:10.37,2013-03-30 22:10:00,
2013-03-30 17:20:00,50.4,48.7,29.95,ESE,116,3.0,7.0,94,0.02,RA,,0.14,0.0,WeatherDisplay:10.37,2013-03-30 22:20:00,
2013-03-30 17:30:00,50.5,49.1,29.95,ESE,121,1.0,7.0,95,0.01,RA,,0.15,0.0,WeatherDisplay:10.37,2013-03-30 22:30:00,
2013-03-30 17:40:00,50.6,49.2,29.95,ESE,114,3.0,5.0,95,0.01,RA,,0.16,0.0,WeatherDisplay:10.37,2013-03-30 22:40:00,
2013-03-30 17:50:00,50.6,49.2,29.95,ESE,119,2.0,5.0,95,0.00,OVC,,0.16,0.0,WeatherDisplay:10.37,2013-03-30 22:50:00,
2013-03-30 18:00:00,50.6,49.2,29.94,ESE,119,3.0,5.0,95,0.01,RA,,0.17,0.0,WeatherDisplay:10.37,2013-03-30 23:00:00,
2013-03-30 18:10:00,50.7,49.3,29.94,ESE,121,2.0,6.0,95,0.01,RA,,0.18,0.0,WeatherDisplay:10.37,2013-03-30 23:10:00,
2013-03-30 18:20:00,50.7,49.3,29.93,ESE,116,3.0,6.0,95,0.00,OVC,,0.18,0.0,WeatherDisplay:10.37,2013-03-30 23:20:00,
2013-03-30 18:30:00,50.8,49.7,29.93,ESE,120,1.0,5.0,96,0.01,RA,,0.19,0.0,WeatherDisplay:10.37,2013-03-30 23:30:00,
2013-03-30 18:40:00,50.9,49.8,29.93,ESE,121,2.0,5.0,96,0.00,OVC,,0.19,0.0,WeatherDisplay:10.37,2013-03-30 23:40:00,
2013-03-30 18:50:00,51.0,49.9,29.92,SE,130,2.0,6.0,96,0.00,OVC,,0.19,0.0,WeatherDisplay:10.37,2013-03-30 23:50:00,
2013-03-30 19:00:00,51.0,49.9,29.92,SE,132,3.0,7.0,96,0.00,OVC,,0.19,0.0,WeatherDisplay:10.37,2013-03-31 00:00:00,
2013-03-30 19:10:00,51.1,50.0,29.92,SE,127,2.0,5.0,96,0.00,OVC,,0.19,0.0,WeatherDisplay:10.37,2013-03-31 00:10:00,
2013-03-30 19:20:00,51.2,50.1,29.92,ESE,116,2.0,4.0,96,0.00,OVC,,0.19,0.0,WeatherDisplay:10.37,2013-03-31 00:20:00,
2013-03-30 19:30:00,51.4,50.3,29.92,ESE,118,1.0,3.0,96,0.00,OVC,,0.19,0.0,WeatherDisplay:10.37,2013-03-31 00:30:00,
2013-03-30 19:40:00,51.5,50.4,29.91,ESE,116,1.0,3.0,96,0.00,OVC,,0.19,0.0,WeatherDisplay:10.37,2013-03-31 00:40:00,
2013-03-30 19:50:00,51.6,50.5,29.91,ESE,123,1.0,2.0,96,0.00,OVC,,0.19,0.0,WeatherDisplay:10.37,2013-03-31 00:50:00,
2013-03-30 20:00:00,51.6,50.5,29.92,ESE,118,0.0,1.0,96,0.00,OVC,,0.19,0.0,WeatherDisplay:10.37,2013-03-31 01:00:00,
2013-03-30 20:10:00,51.6,50.5,29.91,ESE,117,0.0,0.0,96,0.00,OVC,,0.19,0.0,WeatherDisplay:10.37,2013-03-31 01:10:00,
2013-03-30 20:20:00,51.7,50.6,29.91,ESE,117,0.0,1.0,96,0.00,OVC,,0.19,0.0,WeatherDisplay:10.37,2013-03-31 01:20:00,
2013-03-30 20:30:00,51.8,50.7,29.91,ESE,117,0.0,0.0,96,0.00,OVC,,0.19,0.0,WeatherDisplay:10.37,2013-03-31 01:30:00,
2013-03-30 20:40:00,51.8,50.7,29.91,ESE,117,0.0,0.0,96,0.00,OVC,,0.19,0.0,WeatherDisplay:10.37,2013-03-31 01:40:00,
2013-03-30 20:50:00,51.8,50.7,29.91,ESE,118,1.0,1.0,96,0.00,OVC,,0.19,0.0,WeatherDisplay:10.37,2013-03-31 01:50:00,
2013-03-30 21:00:00,51.7,50.6,29.92,ESE,118,0.0,1.0,96,0.00,OVC,,0.19,0.0,WeatherDisplay:10.37,2013-03-31 02:00:00,
2013-03-30 21:10:00,51.7,50.6,29.92,NNW,346,1.0,1.0,96,0.00,OVC,,0.19,0.0,WeatherDisplay:10.37,2013-03-31 02:10:00,
2013-03-30 21:20:00,51.8,50.7,29.92,NNW,342,0.0,1.0,96,0.00,OVC,,0.19,0.0,WeatherDisplay:10.37,2013-03-31 02:20:00,
2013-03-30 21:30:00,51.8,50.7,29.92,WNW,286,2.0,2.0,96,0.00,OVC,,0.19,0.0,WeatherDisplay:10.37,2013-03-31 02:30:00,
2013-03-30 21:40:00,51.6,50.5,29.92,SW,218,1.0,2.0,96,0.00,OVC,,0.19,0.0,WeatherDisplay:10.37,2013-03-31 02:40:00,
2013-03-30 21:50:00,51.6,50.5,29.92,WSW,252,1.0,2.0,96,0.00,OVC,,0.19,0.0,WeatherDisplay:10.37,2013-03-31 02:50:00,
2013-03-30 22:00:00,51.6,50.5,29.92,WSW,255,1.0,2.0,96,0.00,OVC,,0.19,0.0,WeatherDisplay:10.37,2013-03-31 03:00:00,
2013-03-30 22:10:00,51.6,50.5,29.92,WSW,250,1.0,3.0,96,0.00,OVC,,0.19,0.0,WeatherDisplay:10.37,2013-03-31 03:10:00,
2013-03-30 22:20:00,51.7,50.6,29.92,WSW,250,1.0,2.0,96,0.00,OVC,,0.19,0.0,WeatherDisplay:10.37,2013-03-31 03:20:00,
2013-03-30 22:30:00,51.7,50.6,29.92,WSW,251,1.0,2.0,96,0.00,OVC,,0.19,0.0,WeatherDisplay:10.37,2013-03-31 03:30:00,
2013-03-30 22:40:00,51.7,50.9,29.92,WSW,255,1.0,2.0,97,0.00,OVC,,0.19,0.0,WeatherDisplay:10.37,2013-03-31 03:40:00,
2013-03-30 22:50:00,51.8,51.0,29.92,SW,233,2.0,4.0,97,0.00,OVC,,0.19,0.0,WeatherDisplay:10.37,2013-03-31 03:50:00,
2013-03-30 23:00:00,52.1,51.3,29.92,WSW,241,2.0,3.0,97,0.00,OVC,,0.19,0.0,WeatherDisplay:10.37,2013-03-31 04:00:00,
2013-03-30 23:10:00,52.3,51.5,29.92,WSW,247,1.0,3.0,97,0.00,OVC,,0.19,0.0,WeatherDisplay:10.37,2013-03-31 04:10:00,
2013-03-30 23:20:00,52.4,51.6,29.92,WSW,250,2.0,3.0,97,0.00,OVC,,0.19,0.0,WeatherDisplay:10.37,2013-03-31 04:20:00,
2013-03-30 23:30:00,52.5,51.7,29.91,WSW,249,2.0,4.0,97,0.00,OVC,,0.19,0.0,WeatherDisplay:10.37,2013-03-31 04:30:00,
2013-03-30 23:40:00,52.6,51.8,29.91,WSW,252,1.0,3.0,97,0.00,OVC,,0.19,0.0,WeatherDisplay:10.37,2013-03-31 04:40:00,
2013-03-30 23:50:00,52.8,52.0,29.91,WSW,251,2.0,4.0,97,0.00,OVC,,0.19,0.0,WeatherDisplay:10.37,2013-03-31 04:50:00,